Date,TemperatureHighF,TemperatureAvgF,TemperatureLowF,DewpointHighF,DewpointAvgF,DewpointLowF,HumidityHigh,HumidityAvg,HumidityLow,PressureMaxIn,PressureMinIn,WindSpeedMaxMPH,WindSpeedAvgMPH,GustSpeedMaxMPH,PrecipitationSumIn
2013-1-1,42.8,38.6,31.7,31.9,29.3,23.7,79,69,63,30.02,29.92,16,3,16,0.00
2013-1-2,36.0,32.0,26.3,28.9,20.2,14.3,75,62,47,30.23,30.00,16,3,16,0.00
2013-1-3,37.9,29.1,18.0,22.5,19.0,14.2,90,66,50,30.25,30.14,21,2,22,0.00
2013-1-4,40.6,35.9,33.2,26.0,22.9,20.9,64,59,52,30.21,30.10,32,10,32,0.00
2013-1-5,43.1,36.2,31.5,28.8,24.1,21.9,81,62,45,30.38,30.14,28,4,29,0.00
2013-1-6,47.6,37.3,28.5,31.5,28.7,24.3,90,72,50,30.19,30.03,19,2,19,0.00
2013-1-7,42.7,37.5,24.4,32.3,27.2,20.8,89,67,55,30.44,30.15,20,4,22,0.00
2013-1-8,51.7,33.5,21.1,35.9,27.3,19.0,95,79,51,30.42,30.35,7,1,7,0.00
2013-1-9,53.2,35.3,25.0,43.5,29.9,23.2,96,83,49,30.40,30.25,34,4,34,0.00
2013-1-10,52.9,45.8,38.7,34.3,30.8,27.9,73,56,42,30.61,30.40,22,3,25,0.00
2013-1-11,45.1,39.9,34.2,40.2,35.6,28.6,96,85,71,30.49,30.10,13,1,14,0.07
2013-1-12,54.6,44.5,40.7,49.8,42.7,39.7,97,94,83,30.18,30.09,5,0,5,0.01
2013-1-13,53.9,48.5,42.0,53.3,47.8,40.9,98,98,96,30.12,29.94,8,1,9,0.00
2013-1-14,56.5,49.9,38.8,55.9,45.2,36.4,98,85,64,30.32,29.93,22,3,22,0.17
2013-1-15,40.4,38.2,34.0,37.5,35.9,32.7,95,92,81,30.35,30.16,8,1,8,0.51
2013-1-16,41.7,36.5,33.3,40.2,35.4,32.1,97,96,92,30.17,29.84,13,1,14,0.50
2013-1-17,44.5,40.4,35.1,40.3,31.6,25.4,95,71,49,30.14,29.98,25,4,25,0.00
2013-1-18,37.5,32.6,25.5,29.5,19.5,12.7,73,59,39,30.49,30.06,23,4,23,0.00
2013-1-19,55.4,39.9,27.4,32.5,28.3,21.4,86,65,39,30.39,29.93,15,4,16,0.00
2013-1-20,54.9,42.3,32.7,34.3,22.6,8.9,77,50,22,30.09,29.83,35,6,35,0.00
2013-1-21,42.4,32.3,24.7,25.9,19.0,10.8,78,58,40,30.09,29.81,31,4,31,0.00
2013-1-22,27.0,18.9,14.1,11.7,0.8,-3.0,57,45,35,30.30,29.95,27,8,30,0.00
2013-1-23,25.1,19.1,11.6,13.4,3.6,0.7,72,51,35,30.35,30.13,21,4,21,0.00
2013-1-24,26.5,20.9,16.8,15.7,9.6,-0.2,89,64,39,30.52,30.10,23,4,24,0.00
2013-1-25,22.2,19.0,14.9,17.5,9.3,-0.0,90,67,46,30.52,30.07,13,1,13,0.00
2013-1-26,32.8,25.8,19.2,26.0,21.5,16.1,91,84,70,30.44,30.08,10,1,10,0.06
2013-1-27,36.1,28.4,23.0,23.0,19.5,15.9,84,70,54,30.60,30.44,10,2,11,0.00
2013-1-28,41.2,34.3,27.2,40.2,32.0,23.0,97,91,77,30.47,30.05,15,2,15,0.17
2013-1-29,69.5,56.0,37.8,56.7,49.9,36.4,98,81,62,30.10,29.94,15,2,15,0.00
2013-1-30,69.1,56.1,45.8,62.2,54.0,44.1,98,93,75,29.95,29.21,25,3,31,2.53
2013-1-31,55.7,39.8,28.8,54.4,27.6,14.4,98,62,44,29.89,29.15,51,13,51,0.33